[[{"header":{"parameterUnit":"m.s-1","parameterCategory":2,"la1":30.2991,"la2":30.254,"lo1":-89.0895,"lo2":-89.0444,"dy":0.0017,"dx":0.0017,"nx":28,"ny":28,"refTime":"2025-12-21T03:00:00:Z","depth":"0","parameterNumber":2,"parameterNumberName":"U-component_of_CURRENTS"},"data":[0,0,0,0,0,0,0,0,0,0,0,0,0,0,0,0,0,0,0,0,0,0,0,0,0,0,0,0,0,0,0,0,0,0,0,0,0,0,0,0,0,0,0,0,0,0,0,0,0,0,0,0,0,0,0,0,0,0,-0.3817,-0.3817,0,-0.3802,-0.3801,-0.3799,-0.3749,-0.375,-0.375,-0.375,-0.3607,-0.3603,-0.3599,0,0,0,0,0,0,0,0,0,0,0,0,0,-0.3811,-0.381,-0.3816,-0.3817,-0.3819,-0.3802,-0.3801,-0.3799,-0.3749,-0.375,-0.375,-0.375,-0.3608,-0.3603,-0.3599,0,0,0,0,0,0,0,0,0,0,0,0,0,-0.3794,-0.381,-0.3816,-0.3802,-0.3801,-0.3802,-0.38,-0.3799,-0.3749,-0.375,-0.375,-0.375,-0.361,-0.3604,-0.3598,-0.3559,0,0,-0.358,-0.3578,0,0,0,0,0,0,0,0,-0.3795,-0.3792,-0.3803,-0.3803,-0.3802,-0.3789,-0.3747,-0.3717,-0.3749,-0.3755,-0.375,-0.375,-0.3665,-0.3654,-0.3634,-0.3552,-0.3546,-0.358,-0.3576,-0.3574,-0.3572,0,0,0,0,0,0,0,-0.3796,-0.3793,-0.3797,-0.3804,-0.3804,-0.38,-0.3796,-0.374,-0.3696,-0.3754,-0.3754,-0.3774,-0.3662,-0.364,-0.363,-0.3544,-0.358,-0.3575,-0.3571,-0.3569,-0.3375,-0.3373,0,0,0,0,0,0,-0.3824,-0.3794,-0.3798,-0.3798,-0.3814,-0.3801,-0.3796,-0.3782,-0.37,-0.3692,-0.3774,-0.3772,-0.365,-0.3637,-0.3625,-0.3543,-0.3574,-0.3568,-0.3565,-0.3376,-0.3374,-0.3372,0,0,0,0,0,0,-0.3823,-0.3823,-0.3799,-0.3808,-0.3807,-0.3802,-0.3787,-0.3782,-0.3754,-0.3718,-0.3705,-0.3751,-0.3649,-0.3633,-0.3552,-0.3539,-0.3565,-0.356,-0.3378,-0.3376,-0.3373,-0.3399,0,0,0,0,0,0,-0.3822,-0.3821,-0.38,-0.3809,-0.3808,-0.3774,-0.3788,-0.3782,-0.3773,-0.3769,-0.3694,-0.3682,-0.3648,-0.3561,-0.3546,-0.3531,-0.3556,-0.338,-0.3377,-0.3374,-0.3401,-0.3398,-0.3396,0,0,0,0,0,-0.3821,-0.3788,-0.3798,-0.3799,-0.3784,-0.3774,-0.3769,-0.376,-0.3772,-0.3737,-0.3693,-0.3684,-0.3531,-0.3554,-0.3537,-0.3521,-0.3382,-0.3378,-0.3374,-0.3402,-0.3399,-0.3396,0,0,0,0,0,0,-0.377,-0.3782,-0.3793,-0.3763,-0.3765,-0.377,-0.3747,-0.3756,-0.3696,-0.3695,-0.3654,-0.3636,-0.3565,-0.353,-0.3556,-0.3453,-0.3458,-0.3451,-0.3485,-0.3481,-0.3479,-0.3504,-0.3551,0,0,0,0,0,-0.3757,-0.3737,-0.3754,-0.3734,-0.3731,-0.3741,-0.3734,-0.3739,-0.3711,-0.3686,-0.3638,-0.3586,-0.3538,-0.35,-0.3445,-0.338,-0.3375,-0.3358,-0.3356,-0.3355,-0.3362,-0.337,-0.3371,-0.336,-0.336,-0.336,0,0,-0.3746,-0.3745,-0.374,-0.3723,-0.3723,-0.3695,-0.3731,-0.3723,-0.3702,-0.3678,-0.3601,-0.3573,-0.3518,-0.345,-0.3416,-0.3417,-0.3344,-0.335,-0.335,-0.3357,-0.3367,-0.3368,-0.337,-0.3358,-0.3358,-0.3359,0,0,-0.3683,-0.37,-0.3644,-0.3646,-0.3652,-0.3665,-0.3664,-0.3658,-0.3647,-0.3587,-0.3578,-0.3544,-0.3438,-0.3419,-0.3393,-0.3341,-0.3336,-0.3317,-0.3322,-0.333,-0.3333,-0.3335,-0.3297,-0.3296,-0.3314,-0.3314,-0.3314,0,-0.3655,-0.3607,-0.3629,-0.3579,-0.3598,-0.3647,-0.3613,-0.3603,-0.3571,-0.3579,-0.3554,-0.3477,-0.3428,-0.3398,-0.3374,-0.3341,-0.333,-0.3344,-0.3333,-0.3335,-0.3337,-0.3298,-0.3296,-0.3314,-0.3314,-0.3314,-0.3314,0,-0.3534,-0.3524,-0.3502,-0.3463,-0.3471,-0.3468,-0.3491,-0.3488,-0.35,-0.3506,-0.3481,-0.3432,-0.3399,-0.3376,-0.3348,-0.3342,-0.3323,-0.3338,-0.3354,-0.334,-0.3298,-0.3296,-0.3316,-0.3315,-0.3315,-0.3315,0,0,-0.3394,-0.3414,-0.3402,-0.3419,-0.3434,-0.3438,-0.3428,-0.3447,-0.3469,-0.3436,-0.3444,-0.3379,-0.3404,-0.3377,-0.3366,-0.3363,-0.3346,-0.3351,-0.3351,-0.3336,-0.3333,-0.3213,-0.3198,-0.3371,-0.3371,-0.3372,-0.3288,0,-0.3292,-0.3233,-0.3259,-0.3246,-0.3245,-0.333,-0.3328,-0.3367,-0.3393,-0.3402,-0.3419,-0.3399,-0.3391,-0.3386,-0.3387,-0.3367,-0.3347,-0.3365,-0.3328,-0.3325,-0.3241,-0.3195,-0.3077,-0.2984,-0.3286,-0.3285,-0.3285,0,-0.3133,-0.3145,-0.3115,-0.3217,-0.3219,-0.3213,-0.3299,-0.3303,-0.336,-0.3384,-0.3411,-0.3422,-0.3419,-0.341,-0.3388,-0.3403,-0.3362,-0.3342,-0.3339,-0.3223,-0.3202,-0.3049,-0.2969,-0.2949,-0.3282,-0.3282,-0.3282,0,-0.3037,-0.3049,-0.3053,-0.3075,-0.3159,-0.3179,-0.3222,-0.3292,-0.3325,-0.3376,-0.3402,-0.3425,-0.342,-0.3409,-0.3357,-0.3378,-0.3317,-0.3345,-0.3194,-0.3184,-0.3072,-0.305,-0.2991,-0.3318,-0.3318,-0.3318,-0.3318,0,-0.2934,-0.2934,-0.3018,-0.3024,-0.3051,-0.3129,-0.3163,-0.3218,-0.3294,-0.3326,-0.3385,-0.3402,-0.3424,-0.3396,-0.3357,-0.3248,-0.3316,-0.3177,-0.3156,-0.3068,-0.3049,-0.3018,-0.3052,-0.3315,-0.3316,-0.3316,-0.3317,0,-0.2815,-0.2868,-0.2887,-0.2979,-0.3005,-0.302,-0.3121,-0.3152,-0.3241,-0.3282,-0.3297,-0.3375,-0.3339,-0.3319,-0.3276,-0.3221,-0.3083,-0.3086,-0.2951,-0.2914,-0.2756,-0.2795,-0.2707,-0.2629,-0.2914,-0.2911,-0.2908,0,-0.2743,-0.274,-0.283,-0.2843,-0.2876,-0.2927,-0.2965,-0.3091,-0.3135,-0.3253,-0.3259,-0.3266,-0.3219,-0.3108,-0.3025,-0.2904,-0.293,-0.2734,-0.2753,-0.2706,-0.2738,-0.2776,-0.2721,-0.2602,-0.2597,-0.2593,-0.259,0,-0.2611,-0.2646,-0.267,-0.2712,-0.2746,-0.2797,-0.2865,-0.2905,-0.3048,-0.3082,-0.3107,-0.3076,-0.2997,-0.2835,-0.2699,-0.2627,-0.267,-0.2641,-0.2649,-0.2519,-0.2505,-0.2432,-0.2681,-0.2552,-0.2556,-0.2559,-0.2561,-0.2562,-0.2492,-0.2486,-0.2526,-0.2551,-0.2601,-0.2637,-0.2633,-0.273,-0.2767,-0.2805,-0.2877,-0.2796,-0.2713,-0.2503,-0.2419,-0.2273,-0.2368,-0.2231,-0.2288,-0.2335,-0.2242,-0.2372,-0.2192,-0.2194,-0.2195,-0.2196,-0.2197,0,-0.2329,-0.2347,-0.2363,-0.2403,-0.2419,-0.2487,-0.2537,-0.2493,-0.2484,-0.2543,-0.2515,-0.2441,-0.2266,-0.2216,-0.208,-0.1973,-0.1945,-0.1941,-0.2,-0.1964,-0.2112,-0.2079,-0.1798,-0.1798,-0.1798,-0.1798,-0.1798,-0.1798,-0.2239,-0.2197,-0.2221,-0.2199,-0.2239,-0.2184,-0.2177,-0.2099,-0.208,-0.199,-0.2004,-0.2006,-0.2034,-0.2144,-0.1984,-0.1875,-0.185,-0.1778,-0.1819,-0.1973,-0.2006,-0.2039,-0.2015,-0.1725,-0.1725,-0.1599,-0.1598,-0.1598]},{"header":{"parameterUnit":"m.s-1","parameterCategory":2,"la1":30.2991,"la2":30.254,"lo1":-89.0895,"lo2":-89.0444,"dy":0.0017,"dx":0.0017,"nx":28,"ny":28,"refTime":"2025-12-21T03:00:00:Z","depth":"0","parameterNumber":3,"parameterNumberName":"V-component_of_CURRENTS"},"data":[0,0,0,0,0,0,0,0,0,0,0,0,0,0,0,0,0,0,0,0,0,0,0,0,0,0,0,0,0,0,0,0,0,0,0,0,0,0,0,0,0,0,0,0,0,0,0,0,0,0,0,0,0,0,0,0,0,0,-0.0135,-0.0133,0,-0.0009,-0.0007,-0.0006,0.0092,0.0093,0.0094,0.0095,0.0251,0.0254,0.0257,0,0,0,0,0,0,0,0,0,0,0,0,0,-0.0227,-0.0226,-0.0135,-0.0133,-0.0132,-0.0009,-0.0007,-0.0006,0.0092,0.0093,0.0095,0.0096,0.025,0.0253,0.0257,0,0,0,0,0,0,0,0,0,0,0,0,0,-0.0154,-0.0226,-0.0135,-0.0067,-0.0059,-0.0009,-0.0007,-0.0005,0.0092,0.0093,0.0095,0.0096,0.0248,0.0253,0.0258,0.0254,0,0,0.0272,0.0274,0,0,0,0,0,0,0,0,-0.0158,-0.0151,-0.0079,-0.0071,-0.0063,0.0029,0.0018,0.0083,0.0091,0.0033,0.0095,0.0097,0.0179,0.019,0.0207,0.0261,0.0268,0.0272,0.0275,0.0277,0.0279,0,0,0,0,0,0,0,-0.0164,-0.0156,-0.0087,-0.0077,-0.0067,-0.002,-0.0009,0.0031,0.0094,0.0038,0.0046,0.0062,0.0184,0.0202,0.0211,0.027,0.0272,0.0276,0.0279,0.0281,0.0345,0.0344,0,0,0,0,0,0,-0.0181,-0.0161,-0.0091,-0.0083,-0.0106,-0.002,-0.0007,-0.0003,0.0094,0.011,0.006,0.0066,0.0193,0.0206,0.0217,0.0232,0.0277,0.0282,0.0284,0.0346,0.0344,0.0343,0,0,0,0,0,0,-0.0184,-0.0177,-0.0096,-0.0117,-0.0103,-0.002,-0.0017,-0.0002,0.002,0.0111,0.0128,0.0067,0.0195,0.0211,0.0248,0.0239,0.0284,0.0288,0.0347,0.0345,0.0344,0.0254,0,0,0,0,0,0,-0.0188,-0.0179,-0.0195,-0.0119,-0.0102,-0.008,-0.0017,-0.0,0.0028,0.0036,0.0122,0.0138,0.0198,0.0241,0.0253,0.0246,0.0292,0.0348,0.0346,0.0344,0.0258,0.0249,0.0242,0,0,0,0,0,-0.0192,-0.0225,-0.0197,-0.0188,-0.0123,-0.0081,-0.007,-0.0005,0.0026,0.0022,0.0085,0.0136,0.0236,0.0243,0.0258,0.0253,0.0349,0.0347,0.0344,0.0262,0.0251,0.0242,0,0,0,0,0,0,-0.0283,-0.0216,-0.0183,-0.0197,-0.0146,-0.0064,-0.0066,-0.0018,0.0027,0.0035,0.0123,0.0142,0.017,0.0216,0.0221,0.0262,0.03,0.03,0.0232,0.0223,0.0215,0.0205,0.0295,0,0,0,0,0,-0.0309,-0.0308,-0.0236,-0.0245,-0.0227,-0.0149,-0.0127,-0.0081,-0.0024,-0.0002,0.0061,0.0121,0.0168,0.0199,0.0242,0.0264,0.0329,0.0268,0.026,0.0252,0.0253,0.0343,0.0344,0.0335,0.0335,0.0335,0,0,-0.0341,-0.0309,-0.0305,-0.0263,-0.022,-0.0205,-0.0133,-0.0109,-0.0089,0.0006,0.0035,0.009,0.0165,0.0192,0.0209,0.0233,0.0286,0.0249,0.0243,0.0247,0.034,0.0342,0.0343,0.0333,0.0333,0.0334,0,0,-0.0402,-0.0382,-0.0395,-0.0364,-0.0309,-0.0261,-0.0259,-0.0184,-0.0148,-0.0114,-0.004,0.001,0.0076,0.0138,0.0176,0.0144,0.0234,0.015,0.0112,0.0199,0.0201,0.0204,0.0278,0.0289,0.0154,0.0153,0.0153,0,-0.0446,-0.0449,-0.0395,-0.0399,-0.0379,-0.0293,-0.0298,-0.0255,-0.0175,-0.0145,-0.0121,-0.0004,0.0054,0.0115,0.0104,0.0129,0.0188,0.0146,0.019,0.0194,0.0199,0.0275,0.0287,0.0149,0.0149,0.015,0.015,0,-0.05,-0.0507,-0.0518,-0.0487,-0.0466,-0.0461,-0.0387,-0.0361,-0.0309,-0.0245,-0.0182,-0.0097,-0.002,-0.0,0.0044,0.0099,0.0133,0.0165,0.0218,0.0195,0.0276,0.029,0.0142,0.0144,0.0145,0.0146,0,0,-0.0584,-0.056,-0.0563,-0.0562,-0.0512,-0.0498,-0.0476,-0.0419,-0.0391,-0.0315,-0.0266,-0.0185,-0.0122,-0.0077,-0.0006,0.0068,0.0142,0.012,0.0126,0.0197,0.0331,0.0379,0.04,0.0187,0.0189,0.0191,0.0372,0,-0.0639,-0.0675,-0.0639,-0.0661,-0.0669,-0.0595,-0.058,-0.0517,-0.0446,-0.0382,-0.0272,-0.0209,-0.0154,-0.0117,-0.0035,0.0102,0.0178,0.009,0.034,0.0347,0.0397,0.0418,0.0466,0.0634,0.0386,0.0389,0.0391,0,-0.0697,-0.0714,-0.0752,-0.0739,-0.0735,-0.0733,-0.0681,-0.0652,-0.0539,-0.0482,-0.0387,-0.0294,-0.0174,-0.013,0.01,0.0043,0.017,0.0277,0.0288,0.0377,0.0423,0.0619,0.0671,0.0848,0.0414,0.0412,0.0411,0,-0.0774,-0.0789,-0.0823,-0.082,-0.0794,-0.0793,-0.077,-0.0683,-0.0651,-0.0537,-0.0494,-0.0336,-0.0244,-0.0072,0.0146,0.0127,0.0411,0.0418,0.0584,0.0589,0.0702,0.0713,0.0961,0.0578,0.0577,0.0577,0.0576,0,-0.0846,-0.0871,-0.0864,-0.0884,-0.092,-0.0869,-0.0872,-0.0821,-0.0735,-0.0684,-0.0552,-0.0463,-0.0223,-0.0031,0.0146,0.0422,0.042,0.0589,0.0647,0.0669,0.0674,0.0891,0.0949,0.0584,0.0582,0.0581,0.058,0,-0.0917,-0.0912,-0.0954,-0.0955,-0.0958,-0.0982,-0.0955,-0.0944,-0.0856,-0.0782,-0.075,-0.0535,-0.0275,-0.0027,0.0287,0.0435,0.0805,0.0773,0.0776,0.0829,0.1116,0.1164,0.1465,0.1581,0.0977,0.0979,0.0981,0,-0.0953,-0.0984,-0.1021,-0.1054,-0.1058,-0.1079,-0.1088,-0.1017,-0.0989,-0.081,-0.0774,-0.0515,-0.0297,0.0172,0.0483,0.082,0.095,0.104,0.1007,0.1158,0.1254,0.1284,0.1361,0.1124,0.1127,0.1129,0.1131,0,-0.1022,-0.1034,-0.1069,-0.1148,-0.1179,-0.1204,-0.1201,-0.1191,-0.1075,-0.0968,-0.0759,-0.0565,-0.0111,0.0313,0.0729,0.0927,0.1175,0.1099,0.1278,0.1411,0.1441,0.1571,0.0964,0.1153,0.1151,0.1149,0.1148,0.1147,-0.1063,-0.1114,-0.1164,-0.1231,-0.1274,-0.1298,-0.1252,-0.1195,-0.1098,-0.0821,-0.0743,-0.0349,0.0162,0.0771,0.0991,0.1441,0.1388,0.1572,0.1625,0.1646,0.1743,0.1169,0.14,0.1399,0.1398,0.1398,0.1397,0,-0.1108,-0.1163,-0.1242,-0.1307,-0.135,-0.1346,-0.129,-0.1147,-0.0947,-0.0692,-0.0436,0.0122,0.0649,0.1127,0.1699,0.1948,0.2001,0.2073,0.214,0.22,0.1733,0.1723,0.2007,0.2006,0.2006,0.2006,0.2006,0.2006,-0.1131,-0.1213,-0.1258,-0.1342,-0.1371,-0.1258,-0.1173,-0.0924,-0.0667,-0.0169,0.0217,0.0467,0.0994,0.1831,0.2369,0.2426,0.2641,0.2627,0.2738,0.2414,0.2371,0.233,0.2338,0.2746,0.2746,0.3201,0.3205,0.3208]}],[{"header":{"parameterUnit":"m.s-1","parameterCategory":2,"la1":30.2991,"la2":30.254,"lo1":-89.0895,"lo2":-89.0444,"dy":0.0017,"dx":0.0017,"nx":28,"ny":28,"refTime":"2025-12-21T03:00:00:Z","depth":"2","parameterNumber":2,"parameterNumberName":"U-component_of_CURRENTS"},"data":[0,0,0,0,0,0,0,0,0,0,0,0,0,0,0,0,0,0,0,0,0,0,0,0,0,0,0,0,0,0,0,0,0,0,0,0,0,0,0,0,0,0,0,0,0,0,0,0,0,0,0,0,0,0,0,0,0,0,-0.2717,-0.2718,0,-0.2782,-0.2783,-0.2784,-0.278,-0.2779,-0.2778,-0.2777,-0.2778,-0.2779,-0.278,0,0,0,0,0,0,0,0,0,0,0,0,0,-0.2593,-0.2596,-0.2717,-0.2718,-0.2719,-0.2782,-0.2783,-0.2784,-0.278,-0.2779,-0.2778,-0.2777,-0.2778,-0.2779,-0.278,0,0,0,0,0,0,0,0,0,0,0,0,0,-0.265,-0.2596,-0.2717,-0.2726,-0.2727,-0.2782,-0.2783,-0.2784,-0.278,-0.2779,-0.2777,-0.2776,-0.2777,-0.2779,-0.278,-0.2812,0,0,-0.2783,-0.2784,0,0,0,0,0,0,0,0,-0.2647,-0.2655,-0.2724,-0.2725,-0.2727,-0.2773,-0.274,-0.2791,-0.278,-0.2759,-0.2777,-0.2776,-0.2772,-0.2774,-0.2788,-0.2812,-0.2812,-0.2783,-0.2784,-0.2785,-0.2785,0,0,0,0,0,0,0,-0.2643,-0.2652,-0.2742,-0.2725,-0.2727,-0.2728,-0.2734,-0.275,-0.2769,-0.276,-0.276,-0.277,-0.2772,-0.2787,-0.2787,-0.2812,-0.2783,-0.2785,-0.2785,-0.2786,-0.2843,-0.2844,0,0,0,0,0,0,-0.264,-0.2649,-0.274,-0.2744,-0.2685,-0.2731,-0.2738,-0.2758,-0.2771,-0.2772,-0.2771,-0.277,-0.2785,-0.2786,-0.2787,-0.2814,-0.2785,-0.2786,-0.2787,-0.2842,-0.2843,-0.2844,0,0,0,0,0,0,-0.2637,-0.2648,-0.2737,-0.2698,-0.2709,-0.2735,-0.2757,-0.276,-0.2781,-0.278,-0.2779,-0.2789,-0.2784,-0.2786,-0.2802,-0.2814,-0.2786,-0.2787,-0.2841,-0.2843,-0.2844,-0.2874,0,0,0,0,0,0,-0.2633,-0.2647,-0.2666,-0.2698,-0.2712,-0.2776,-0.2759,-0.2762,-0.2789,-0.2788,-0.2795,-0.2794,-0.2783,-0.2801,-0.2804,-0.2815,-0.2788,-0.284,-0.2842,-0.2843,-0.2872,-0.2876,-0.288,0,0,0,0,0,-0.2629,-0.266,-0.2667,-0.2678,-0.2736,-0.2777,-0.2784,-0.2796,-0.2792,-0.2809,-0.2807,-0.2794,-0.2812,-0.2803,-0.2806,-0.2818,-0.284,-0.2841,-0.2843,-0.287,-0.2875,-0.2879,0,0,0,0,0,0,-0.2618,-0.2663,-0.2672,-0.2716,-0.2746,-0.2776,-0.2797,-0.2807,-0.2824,-0.2819,-0.2811,-0.281,-0.2828,-0.2824,-0.2814,-0.2838,-0.2822,-0.2824,-0.2841,-0.2846,-0.285,-0.2848,-0.2789,0,0,0,0,0,-0.2626,-0.2657,-0.2698,-0.2731,-0.2749,-0.2776,-0.2797,-0.2807,-0.2824,-0.2831,-0.2834,-0.2834,-0.284,-0.2843,-0.2849,-0.287,-0.2854,-0.2877,-0.2881,-0.2884,-0.2885,-0.2887,-0.2891,-0.285,-0.285,-0.285,0,0,-0.2626,-0.2659,-0.2674,-0.273,-0.2753,-0.2784,-0.2785,-0.2821,-0.284,-0.2829,-0.2852,-0.2853,-0.285,-0.2866,-0.2873,-0.2862,-0.2884,-0.2887,-0.2889,-0.2888,-0.2889,-0.2893,-0.2897,-0.2851,-0.2851,-0.2851,0,0,-0.2637,-0.2677,-0.2702,-0.2733,-0.2778,-0.2798,-0.2812,-0.2849,-0.2861,-0.2889,-0.2879,-0.289,-0.2903,-0.2901,-0.2901,-0.2934,-0.2907,-0.2935,-0.295,-0.2952,-0.2955,-0.2958,-0.2924,-0.2923,-0.2933,-0.2933,-0.2933,0,-0.2634,-0.2676,-0.2714,-0.2748,-0.2772,-0.2805,-0.2831,-0.2857,-0.2892,-0.2905,-0.2896,-0.2923,-0.2918,-0.2937,-0.2939,-0.2942,-0.2926,-0.2931,-0.2956,-0.2959,-0.2961,-0.2926,-0.2925,-0.2934,-0.2934,-0.2934,-0.2934,0,-0.2659,-0.2696,-0.2716,-0.2765,-0.2799,-0.283,-0.2869,-0.2901,-0.2916,-0.2934,-0.2963,-0.2964,-0.2975,-0.2976,-0.2964,-0.2982,-0.2958,-0.2964,-0.2943,-0.2967,-0.2928,-0.2926,-0.2937,-0.2936,-0.2936,-0.2935,0,0,-0.2628,-0.2714,-0.2717,-0.2742,-0.2809,-0.2836,-0.2881,-0.2926,-0.295,-0.298,-0.3001,-0.3016,-0.3019,-0.3018,-0.3013,-0.3011,-0.3001,-0.2991,-0.299,-0.2953,-0.2979,-0.2873,-0.286,-0.3012,-0.3013,-0.3013,-0.2938,0,-0.2628,-0.2682,-0.273,-0.2774,-0.2803,-0.2858,-0.2895,-0.2942,-0.2973,-0.3003,-0.302,-0.3036,-0.3034,-0.3034,-0.3038,-0.3014,-0.3002,-0.3019,-0.2965,-0.2962,-0.2863,-0.2857,-0.2653,-0.2561,-0.2936,-0.2936,-0.2935,0,-0.2621,-0.2664,-0.2705,-0.2779,-0.2797,-0.2827,-0.2891,-0.2932,-0.2991,-0.3016,-0.3049,-0.3061,-0.3069,-0.306,-0.304,-0.3051,-0.3016,-0.2994,-0.2991,-0.2881,-0.2854,-0.2603,-0.2544,-0.2932,-0.2932,-0.2933,-0.2933,0,-0.2558,-0.2639,-0.2668,-0.2694,-0.2785,-0.2811,-0.2856,-0.2926,-0.296,-0.3018,-0.3039,-0.3068,-0.3067,-0.3054,-0.3011,-0.3026,-0.297,-0.2986,-0.2857,-0.2848,-0.2656,-0.263,-0.2967,-0.2967,-0.2967,-0.2967,-0.2967,0,-0.2528,-0.2548,-0.264,-0.2655,-0.269,-0.277,-0.281,-0.2865,-0.2936,-0.2962,-0.3031,-0.3041,-0.3067,-0.3043,-0.3009,-0.2911,-0.2968,-0.2847,-0.2824,-0.2658,-0.2634,-0.2951,-0.295,-0.2964,-0.2965,-0.2965,-0.2966,0,-0.244,-0.2505,-0.254,-0.2633,-0.2658,-0.2678,-0.2773,-0.28,-0.2887,-0.292,-0.2937,-0.3009,-0.2975,-0.2972,-0.293,-0.2884,-0.2816,-0.2767,-0.2551,-0.2503,-0.2692,-0.2694,-0.2618,-0.2613,-0.261,-0.2607,-0.2604,0,-0.2394,-0.2405,-0.2495,-0.2509,-0.2545,-0.2598,-0.2629,-0.2746,-0.278,-0.2882,-0.288,-0.2894,-0.2845,-0.2753,-0.2681,-0.2582,-0.2694,-0.2352,-0.235,-0.2672,-0.2657,-0.2665,-0.2672,-0.2099,-0.2092,-0.2087,-0.2083,0,-0.2294,-0.2327,-0.2356,-0.2394,-0.2426,-0.247,-0.2529,-0.255,-0.2673,-0.27,-0.2705,-0.2674,-0.2613,-0.242,-0.2325,-0.2254,-0.2355,-0.224,-0.2623,-0.2227,-0.2179,-0.2166,-0.219,-0.2035,-0.204,-0.2044,-0.2046,-0.2048,-0.2194,-0.2191,-0.2229,-0.2249,-0.2288,-0.23,-0.2268,-0.2343,-0.2354,-0.2343,-0.2444,-0.2323,-0.2311,-0.204,-0.1936,-0.1872,-0.2039,-0.1959,-0.1977,-0.2001,-0.1963,-0.1912,-0.1708,-0.1711,-0.1713,-0.1716,-0.1717,0,-0.2057,-0.2069,-0.208,-0.2094,-0.2063,-0.2141,-0.2158,-0.2088,-0.2022,-0.2056,-0.2015,-0.1794,-0.1659,-0.1658,-0.1479,-0.145,-0.1456,-0.1398,-0.1411,-0.1457,-0.1499,-0.1438,-0.1043,-0.1041,-0.1039,-0.1038,0,0,-0.1981,-0.1939,-0.1948,-0.1851,-0.1853,-0.174,-0.17,-0.1632,-0.1604,-0.1491,-0.1435,-0.1535,-0.1576,-0.1302,-0.1249,-0.1112,-0.1271,-0.1054,-0.1591,-0.1649,-0.1688,-0.1813,-0.1769,0,0,0,0,0]},{"header":{"parameterUnit":"m.s-1","parameterCategory":2,"la1":30.2991,"la2":30.254,"lo1":-89.0895,"lo2":-89.0444,"dy":0.0017,"dx":0.0017,"nx":28,"ny":28,"refTime":"2025-12-21T03:00:00:Z","depth":"2","parameterNumber":3,"parameterNumberName":"V-component_of_CURRENTS"},"data":[0,0,0,0,0,0,0,0,0,0,0,0,0,0,0,0,0,0,0,0,0,0,0,0,0,0,0,0,0,0,0,0,0,0,0,0,0,0,0,0,0,0,0,0,0,0,0,0,0,0,0,0,0,0,0,0,0,0,-0.034,-0.0339,0,-0.0226,-0.0224,-0.0223,-0.0148,-0.0148,-0.0148,-0.0147,0.0018,0.0022,0.0026,0,0,0,0,0,0,0,0,0,0,0,0,0,-0.0425,-0.0424,-0.034,-0.0338,-0.0337,-0.0226,-0.0224,-0.0223,-0.0148,-0.0148,-0.0148,-0.0147,0.0016,0.0021,0.0026,0,0,0,0,0,0,0,0,0,0,0,0,0,-0.0355,-0.0424,-0.034,-0.0288,-0.0283,-0.0227,-0.0224,-0.0222,-0.0148,-0.0148,-0.0148,-0.0147,0.0015,0.0021,0.0027,0.0056,0,0,0.0045,0.0048,0,0,0,0,0,0,0,0,-0.0359,-0.0352,-0.0297,-0.0292,-0.0285,-0.0203,-0.0194,-0.0127,-0.0149,-0.0197,-0.0147,-0.0147,-0.0053,-0.0041,-0.0019,0.0064,0.0071,0.0046,0.005,0.0052,0.0054,0,0,0,0,0,0,0,-0.0364,-0.0356,-0.0293,-0.0296,-0.0289,-0.0248,-0.0238,-0.0181,-0.0126,-0.0193,-0.0188,-0.0179,-0.0049,-0.0025,-0.0014,0.0073,0.0046,0.0051,0.0055,0.0058,0.0202,0.0202,0,0,0,0,0,0,-0.0387,-0.0361,-0.0296,-0.0289,-0.0324,-0.0247,-0.0236,-0.0228,-0.0128,-0.0113,-0.0179,-0.0176,-0.0036,-0.0021,-0.0008,0.0037,0.0052,0.0058,0.0062,0.0202,0.0202,0.0202,0,0,0,0,0,0,-0.0389,-0.0382,-0.0301,-0.0324,-0.0311,-0.0247,-0.0238,-0.0226,-0.02,-0.0118,-0.0102,-0.0166,-0.0035,-0.0017,0.0044,0.0044,0.0061,0.0067,0.0202,0.0202,0.0202,0.0124,0,0,0,0,0,0,-0.0392,-0.0384,-0.0385,-0.0326,-0.0311,-0.0272,-0.0238,-0.0224,-0.0196,-0.019,-0.0102,-0.0086,-0.0033,0.0034,0.005,0.0052,0.0071,0.0202,0.0202,0.0202,0.0126,0.0121,0.0117,0,0,0,0,0,-0.0395,-0.04,-0.0386,-0.0378,-0.0315,-0.0272,-0.0261,-0.0212,-0.0196,-0.0186,-0.0126,-0.0089,0.0047,0.0039,0.0058,0.0062,0.0202,0.0202,0.0202,0.0128,0.0122,0.0117,0,0,0,0,0,0,-0.0434,-0.0391,-0.0375,-0.0365,-0.0326,-0.0261,-0.0248,-0.0218,-0.0163,-0.0158,-0.0082,-0.0062,-0.0012,0.0037,0.0027,0.0104,0.0129,0.0133,0.0066,0.0061,0.0057,0.0039,0.0077,0,0,0,0,0,-0.0447,-0.0441,-0.039,-0.0384,-0.0367,-0.0311,-0.0288,-0.0257,-0.0202,-0.0178,-0.0116,-0.0052,0.0004,0.0041,0.0096,0.0143,0.0191,0.0157,0.0152,0.0148,0.0147,0.0217,0.0218,0.0203,0.0203,0.0203,0,0,-0.0462,-0.0437,-0.0434,-0.0392,-0.0358,-0.0339,-0.0295,-0.0267,-0.0248,-0.0168,-0.0123,-0.0066,0.0012,0.0061,0.0088,0.0103,0.0177,0.0149,0.0144,0.0145,0.0217,0.0219,0.022,0.0204,0.0204,0.0204,0,0,-0.0489,-0.0467,-0.047,-0.0443,-0.0401,-0.0364,-0.0361,-0.0299,-0.0268,-0.022,-0.0162,-0.0105,-0.0018,0.0039,0.0079,0.0085,0.0146,0.0099,0.007,0.0137,0.0139,0.0141,0.0196,0.0203,0.0102,0.0101,0.0101,0,-0.051,-0.0507,-0.0464,-0.0458,-0.0444,-0.0382,-0.0381,-0.0337,-0.0264,-0.0239,-0.0217,-0.009,-0.0027,0.004,0.004,0.0074,0.0117,0.0081,0.013,0.0133,0.0137,0.0193,0.0202,0.0098,0.0098,0.0099,0.0099,0,-0.0535,-0.0533,-0.0533,-0.0509,-0.0485,-0.0475,-0.0417,-0.0387,-0.0346,-0.0298,-0.0229,-0.014,-0.0065,-0.0037,0.0006,0.006,0.0083,0.011,0.0139,0.0133,0.0193,0.0204,0.0092,0.0094,0.0095,0.0096,0,0,-0.0582,-0.0559,-0.056,-0.0564,-0.0516,-0.0502,-0.0471,-0.0424,-0.0406,-0.0326,-0.0289,-0.019,-0.0142,-0.0095,-0.003,0.0034,0.0092,0.0075,0.008,0.0119,0.0234,0.0258,0.0273,0.0126,0.0128,0.0129,0.0262,0,-0.0617,-0.0635,-0.0604,-0.0617,-0.0621,-0.0564,-0.0543,-0.0492,-0.0434,-0.038,-0.0279,-0.0218,-0.0163,-0.013,-0.0059,0.0055,0.0119,0.0053,0.0243,0.0248,0.0262,0.0286,0.0246,0.0362,0.0273,0.0275,0.0277,0,-0.0652,-0.0662,-0.0687,-0.0682,-0.0677,-0.0671,-0.0635,-0.0605,-0.0512,-0.0466,-0.0383,-0.03,-0.0194,-0.0149,0.0041,-0.0005,0.0103,0.0194,0.0201,0.026,0.0293,0.0357,0.0387,0.0296,0.0294,0.0293,0.0292,0,-0.0716,-0.072,-0.0749,-0.0746,-0.0724,-0.0723,-0.0705,-0.0635,-0.0612,-0.0516,-0.0483,-0.0347,-0.0272,-0.0123,0.0062,0.0053,0.0275,0.0288,0.0415,0.0418,0.044,0.0442,0.0424,0.0424,0.0424,0.0423,0.0423,0,-0.0768,-0.079,-0.0785,-0.0802,-0.0837,-0.0792,-0.0801,-0.076,-0.0693,-0.0662,-0.0536,-0.0469,-0.0261,-0.0106,0.0052,0.027,0.0272,0.0417,0.046,0.0411,0.0409,0.0397,0.0392,0.0428,0.0427,0.0426,0.0425,0,-0.083,-0.0824,-0.0862,-0.0864,-0.0869,-0.0893,-0.0879,-0.0877,-0.0804,-0.0757,-0.0728,-0.0551,-0.0344,-0.0129,0.0131,0.0258,0.0461,0.0539,0.0462,0.0492,0.0558,0.0547,0.0686,0.0688,0.069,0.0691,0.0692,0,-0.0861,-0.0888,-0.0923,-0.0956,-0.0961,-0.0985,-0.0999,-0.0943,-0.0928,-0.0797,-0.0773,-0.0569,-0.0403,-0.0021,0.024,0.0523,0.0531,0.0641,0.062,0.0561,0.0588,0.0574,0.0562,0.0619,0.062,0.062,0.062,0,-0.0922,-0.0934,-0.0966,-0.1041,-0.1075,-0.1106,-0.1113,-0.1118,-0.1032,-0.0957,-0.0812,-0.0666,-0.0303,0.0009,0.0362,0.0522,0.0588,0.0659,0.0644,0.055,0.0506,0.053,0.0518,0.0624,0.0624,0.0624,0.0623,0.0623,-0.0962,-0.1008,-0.1056,-0.1122,-0.1168,-0.1206,-0.1221,-0.1193,-0.1143,-0.1,-0.0852,-0.0598,-0.0312,0.0197,0.0445,0.0669,0.0668,0.0723,0.0718,0.0714,0.0673,0.0635,0.0768,0.0769,0.0769,0.0769,0.077,0,-0.101,-0.1059,-0.1132,-0.1204,-0.1261,-0.1263,-0.1276,-0.1249,-0.1175,-0.1001,-0.0818,-0.0474,-0.0123,0.0178,0.0534,0.0743,0.0721,0.0773,0.0701,0.0697,0.0693,0.0648,0.0738,0.0739,0.0739,0.074,0,0,-0.1036,-0.1111,-0.115,-0.1256,-0.1307,-0.1347,-0.1346,-0.1272,-0.1146,-0.0947,-0.0742,-0.0477,-0.0115,0.013,0.0392,0.0577,0.058,0.0592,0.0595,0.0474,0.0467,0.0643,0.0566,0,0,0,0,0]}],[{"header":{"parameterUnit":"m.s-1","parameterCategory":2,"la1":30.2991,"la2":30.254,"lo1":-89.0895,"lo2":-89.0444,"dy":0.0017,"dx":0.0017,"nx":28,"ny":28,"refTime":"2025-12-21T03:00:00:Z","depth":"4","parameterNumber":2,"parameterNumberName":"U-component_of_CURRENTS"},"data":[0,0,0,0,0,0,0,0,0,0,0,0,0,0,0,0,0,0,0,0,0,0,0,0,0,0,0,0,0,0,0,0,0,0,0,0,0,0,0,0,0,0,0,0,0,0,0,0,0,0,0,0,0,0,0,0,0,0,-0.1826,-0.1827,0,-0.1924,-0.1925,-0.1926,-0.1978,-0.1979,-0.1979,-0.1979,-0.2062,-0.2064,-0.2066,0,0,0,0,0,0,0,0,0,0,0,0,0,-0.1687,-0.1689,-0.1826,-0.1827,-0.1829,-0.1924,-0.1925,-0.1926,-0.1978,-0.1979,-0.1979,-0.198,-0.2061,-0.2064,-0.2066,0,0,0,0,0,0,0,0,0,0,0,0,0,-0.176,-0.169,-0.1826,-0.1868,-0.1873,-0.1924,-0.1925,-0.1927,-0.1978,-0.1979,-0.1979,-0.198,-0.2061,-0.2063,-0.2066,-0.2075,0,0,-0.2075,-0.2076,0,0,0,0,0,0,0,0,-0.1756,-0.1765,-0.186,-0.1865,-0.1871,-0.1942,-0.1907,-0.1976,-0.1978,-0.1936,-0.1979,-0.198,-0.2021,-0.2028,-0.2042,-0.2079,-0.2082,-0.2075,-0.2077,-0.2078,-0.2079,0,0,0,0,0,0,0,-0.1751,-0.1761,-0.1863,-0.1862,-0.1868,-0.1883,-0.1894,-0.192,-0.1973,-0.194,-0.1944,-0.1959,-0.2024,-0.2039,-0.2044,-0.2084,-0.2075,-0.2078,-0.208,-0.2081,-0.2223,-0.2225,0,0,0,0,0,0,-0.1743,-0.1756,-0.186,-0.1866,-0.1816,-0.1885,-0.1897,-0.1917,-0.1973,-0.1983,-0.1958,-0.1961,-0.2034,-0.2041,-0.2048,-0.214,-0.2078,-0.2081,-0.2083,-0.2221,-0.2223,-0.2225,0,0,0,0,0,0,-0.174,-0.1751,-0.1856,-0.1815,-0.1829,-0.1888,-0.1909,-0.1918,-0.1971,-0.1988,-0.1997,-0.2005,-0.2035,-0.2043,-0.2105,-0.2141,-0.2082,-0.2085,-0.2218,-0.2221,-0.2224,-0.2275,0,0,0,0,0,0,-0.1735,-0.175,-0.1778,-0.1814,-0.1831,-0.191,-0.1909,-0.192,-0.1977,-0.1983,-0.203,-0.2036,-0.2036,-0.2101,-0.2108,-0.2144,-0.2087,-0.2216,-0.222,-0.2223,-0.2271,-0.2279,-0.2287,0,0,0,0,0,-0.173,-0.1767,-0.1779,-0.1792,-0.1863,-0.1912,-0.1923,-0.1963,-0.198,-0.2011,-0.2045,-0.2037,-0.213,-0.2105,-0.2113,-0.215,-0.2214,-0.2219,-0.2223,-0.2267,-0.2278,-0.2287,0,0,0,0,0,0,-0.1729,-0.1777,-0.1791,-0.1843,-0.1884,-0.1922,-0.1965,-0.1986,-0.2038,-0.2055,-0.2064,-0.2074,-0.214,-0.2143,-0.2115,-0.2204,-0.217,-0.2177,-0.2201,-0.2211,-0.2219,-0.2207,-0.209,0,0,0,0,0,-0.1738,-0.1777,-0.1819,-0.1864,-0.1891,-0.1933,-0.1966,-0.1992,-0.2035,-0.2061,-0.2091,-0.2126,-0.216,-0.2185,-0.2213,-0.2264,-0.224,-0.2294,-0.2302,-0.2308,-0.2305,-0.2305,-0.2312,-0.224,-0.224,-0.224,0,0,-0.175,-0.1783,-0.1806,-0.1867,-0.1905,-0.1951,-0.1955,-0.2018,-0.206,-0.206,-0.2138,-0.2161,-0.2181,-0.2237,-0.2267,-0.2247,-0.2317,-0.2314,-0.232,-0.2313,-0.2311,-0.2317,-0.2323,-0.2244,-0.2243,-0.2242,0,0,-0.1781,-0.1825,-0.1864,-0.1903,-0.1967,-0.1992,-0.2018,-0.2076,-0.2113,-0.2181,-0.219,-0.2234,-0.2295,-0.2308,-0.2322,-0.2394,-0.2361,-0.2413,-0.2442,-0.2443,-0.2448,-0.2452,-0.2422,-0.2423,-0.2414,-0.2414,-0.2414,0,-0.1795,-0.1845,-0.1884,-0.1931,-0.1968,-0.2014,-0.2061,-0.2106,-0.2177,-0.2205,-0.2218,-0.2305,-0.2324,-0.2373,-0.2398,-0.2411,-0.2394,-0.24,-0.2451,-0.2454,-0.2458,-0.2426,-0.2426,-0.2417,-0.2417,-0.2417,-0.2416,0,-0.1841,-0.1895,-0.1927,-0.1994,-0.204,-0.2092,-0.2148,-0.2204,-0.2252,-0.2282,-0.2358,-0.2386,-0.2428,-0.2449,-0.2447,-0.2488,-0.2463,-0.2459,-0.2418,-0.2467,-0.2431,-0.2431,-0.2422,-0.2421,-0.242,-0.2419,0,0,-0.1828,-0.1936,-0.195,-0.1987,-0.2077,-0.2113,-0.2194,-0.2261,-0.2305,-0.2377,-0.2423,-0.249,-0.25,-0.2516,-0.2523,-0.2527,-0.2536,-0.2507,-0.2506,-0.2463,-0.2516,-0.2349,-0.2332,-0.2542,-0.2542,-0.2543,-0.2477,0,-0.185,-0.1934,-0.1987,-0.2069,-0.2113,-0.2181,-0.2242,-0.2311,-0.2368,-0.2424,-0.2466,-0.2515,-0.2527,-0.2547,-0.2559,-0.2542,-0.2539,-0.2552,-0.2488,-0.2485,-0.2318,-0.2327,-0.2544,-0.2477,-0.2476,-0.2476,-0.2476,0,-0.1864,-0.192,-0.2001,-0.2094,-0.2121,-0.2179,-0.2271,-0.2333,-0.2418,-0.2461,-0.252,-0.2546,-0.2581,-0.2577,-0.2576,-0.2585,-0.2557,-0.2538,-0.2535,-0.2357,-0.2316,-0.2422,-0.2475,-0.2475,-0.2475,-0.2475,-0.2475,0,-0.1806,-0.1922,-0.1983,-0.2019,-0.2135,-0.2188,-0.2252,-0.2345,-0.2391,-0.2481,-0.251,-0.2565,-0.2583,-0.2579,-0.2553,-0.2567,-0.252,-0.2531,-0.2354,-0.2341,-0.2489,-0.2485,-0.252,-0.252,-0.252,-0.252,-0.252,0,-0.178,-0.1833,-0.1967,-0.1998,-0.2067,-0.2163,-0.2236,-0.2308,-0.2396,-0.2425,-0.2521,-0.2527,-0.2587,-0.2571,-0.2547,-0.2429,-0.2517,-0.2343,-0.231,-0.2512,-0.2512,-0.2487,-0.2484,-0.2518,-0.2518,-0.2519,-0.2519,0,-0.1697,-0.179,-0.1864,-0.1997,-0.2041,-0.209,-0.2217,-0.2253,-0.236,-0.2396,-0.2423,-0.2499,-0.2469,-0.2489,-0.2459,-0.2391,-0.2315,-0.2254,-0.2444,-0.2427,-0.2137,-0.2138,-0.2042,-0.2035,-0.203,-0.2025,-0.2021,0,-0.1656,-0.1689,-0.1839,-0.1877,-0.1942,-0.2035,-0.2082,-0.2215,-0.2242,-0.2345,-0.233,-0.2357,-0.2382,-0.2191,-0.2249,-0.2172,-0.2157,-0.2107,-0.2144,-0.2108,-0.2088,-0.2098,-0.2106,-0.2012,-0.2011,-0.2009,-0.2008,0,-0.1563,-0.1635,-0.1693,-0.1773,-0.184,-0.1901,-0.198,-0.1981,-0.2104,-0.2225,-0.2159,-0.213,-0.2087,-0.2058,-0.2008,-0.1967,-0.2135,-0.2049,-0.2061,-0.2096,-0.2072,-0.2059,-0.2074,-0.1989,-0.1992,-0.1993,-0.1994,0,-0.1488,-0.1505,-0.1587,-0.1638,-0.1717,-0.1722,-0.1793,-0.1805,-0.1848,-0.1966,-0.1932,-0.1967,-0.2044,-0.1948,-0.1904,-0.1843,-0.1829,-0.1779,-0.1806,-0.1827,-0.1791,-0.1731,-0.1496,0,0,0,0,0,-0.1402,-0.14,-0.1439,-0.1482,-0.1552,-0.1588,-0.1694,-0.1765,-0.1885,-0.1776,-0.1848,-0.1795,-0.1728,-0.1758,-0.1649,-0.1822,-0.1845,-0.1691,-0.1806,-0.1883,-0.1905,-0.1884,0,0,0,0,0,0,-0.1341,-0.1375,-0.1384,-0.1332,-0.1324,-0.1375,-0.1429,-0.1517,-0.1472,-0.16,-0.1567,-0.1673,-0.1633,-0.174,-0.1601,-0.1611,-0.1645,-0.1731,-0.1726,-0.187,-0.189,-0.1908,-0.1894,0,0,0,0,0]},{"header":{"parameterUnit":"m.s-1","parameterCategory":2,"la1":30.2991,"la2":30.254,"lo1":-89.0895,"lo2":-89.0444,"dy":0.0017,"dx":0.0017,"nx":28,"ny":28,"refTime":"2025-12-21T03:00:00:Z","depth":"4","parameterNumber":3,"parameterNumberName":"V-component_of_CURRENTS"},"data":[0,0,0,0,0,0,0,0,0,0,0,0,0,0,0,0,0,0,0,0,0,0,0,0,0,0,0,0,0,0,0,0,0,0,0,0,0,0,0,0,0,0,0,0,0,0,0,0,0,0,0,0,0,0,0,0,0,0,-0.028,-0.0279,0,-0.0207,-0.0206,-0.0205,-0.016,-0.016,-0.016,-0.016,-0.0037,-0.0034,-0.0031,0,0,0,0,0,0,0,0,0,0,0,0,0,-0.0323,-0.0323,-0.028,-0.0279,-0.0279,-0.0207,-0.0206,-0.0205,-0.016,-0.016,-0.016,-0.016,-0.0038,-0.0035,-0.0031,0,0,0,0,0,0,0,0,0,0,0,0,0,-0.0282,-0.0323,-0.028,-0.0249,-0.0245,-0.0207,-0.0206,-0.0204,-0.016,-0.016,-0.016,-0.016,-0.004,-0.0035,-0.003,-0.0003,0,0,-0.0016,-0.0014,0,0,0,0,0,0,0,0,-0.0284,-0.028,-0.0254,-0.0251,-0.0247,-0.0194,-0.0176,-0.0135,-0.016,-0.0191,-0.016,-0.016,-0.0086,-0.0078,-0.0063,0.0002,0.0008,-0.0015,-0.0012,-0.001,-0.0009,0,0,0,0,0,0,0,-0.0287,-0.0283,-0.025,-0.0254,-0.0249,-0.0219,-0.0213,-0.0168,-0.0138,-0.0188,-0.0185,-0.018,-0.0084,-0.0067,-0.0059,0.0009,-0.0015,-0.0011,-0.0008,-0.0006,0.0119,0.012,0,0,0,0,0,0,-0.0302,-0.0286,-0.0252,-0.0248,-0.0267,-0.0218,-0.0212,-0.021,-0.014,-0.013,-0.018,-0.0178,-0.0076,-0.0065,-0.0055,-0.0016,-0.001,-0.0006,-0.0003,0.0119,0.0119,0.012,0,0,0,0,0,0,-0.0304,-0.03,-0.0255,-0.0266,-0.0258,-0.0218,-0.0216,-0.0209,-0.0194,-0.0134,-0.0123,-0.0174,-0.0075,-0.0061,-0.0014,-0.0011,-0.0004,0.0001,0.0118,0.0119,0.012,0.006,0,0,0,0,0,0,-0.0305,-0.0301,-0.0307,-0.0267,-0.0258,-0.0237,-0.0216,-0.0207,-0.0192,-0.0188,-0.0125,-0.0113,-0.0074,-0.0022,-0.0009,-0.0004,0.0004,0.0118,0.0119,0.0119,0.0062,0.0059,0.0057,0,0,0,0,0,-0.0307,-0.0313,-0.0307,-0.0303,-0.0267,-0.0238,-0.023,-0.02,-0.0192,-0.0186,-0.0142,-0.0115,-0.0007,-0.0017,-0.0003,0.0004,0.0117,0.0118,0.0119,0.0063,0.006,0.0057,0,0,0,0,0,0,-0.0331,-0.0308,-0.0301,-0.0299,-0.0275,-0.0231,-0.0224,-0.0205,-0.0167,-0.0164,-0.0108,-0.0093,-0.0052,-0.0014,-0.0026,0.0044,0.0059,0.0063,0.0011,0.0009,0.0006,-0.0012,0.0008,0,0,0,0,0,-0.0341,-0.0343,-0.0311,-0.0312,-0.0301,-0.0266,-0.0252,-0.0232,-0.0194,-0.0177,-0.0132,-0.0082,-0.0035,-0.0007,0.0038,0.0078,0.0111,0.0092,0.009,0.0087,0.0083,0.0137,0.0139,0.0123,0.0123,0.0123,0,0,-0.0353,-0.034,-0.0341,-0.0318,-0.0297,-0.0284,-0.0256,-0.0239,-0.0226,-0.0169,-0.0136,-0.0091,-0.0028,0.0015,0.0037,0.0047,0.0109,0.0088,0.0086,0.0083,0.0138,0.014,0.0141,0.0124,0.0124,0.0124,0,0,-0.0371,-0.0363,-0.0368,-0.0352,-0.0327,-0.0303,-0.0302,-0.0261,-0.024,-0.0204,-0.016,-0.0114,-0.0044,0.0003,0.0035,0.0048,0.009,0.0062,0.004,0.0092,0.0093,0.0095,0.0131,0.0137,0.0065,0.0065,0.0065,0,-0.0386,-0.0389,-0.0364,-0.0361,-0.0354,-0.0315,-0.0316,-0.0286,-0.0235,-0.0218,-0.0202,-0.01,-0.0049,0.0008,0.0012,0.0041,0.0071,0.0043,0.0087,0.0089,0.0092,0.0129,0.0136,0.0062,0.0062,0.0063,0.0063,0,-0.0402,-0.0407,-0.0407,-0.0395,-0.0382,-0.0377,-0.0338,-0.0319,-0.0292,-0.0258,-0.0205,-0.0133,-0.0075,-0.0048,-0.0012,0.0034,0.0049,0.0071,0.0088,0.0089,0.0129,0.0137,0.0058,0.0059,0.006,0.0061,0,0,-0.0432,-0.0424,-0.0426,-0.0434,-0.0404,-0.0397,-0.0376,-0.0345,-0.0337,-0.0276,-0.0252,-0.0166,-0.0133,-0.0093,-0.0039,0.0012,0.0057,0.0044,0.0048,0.0069,0.0161,0.014,0.0147,0.0085,0.0086,0.0087,0.0177,0,-0.0455,-0.0473,-0.0455,-0.047,-0.0476,-0.0442,-0.0428,-0.0396,-0.0357,-0.0321,-0.0241,-0.0196,-0.0147,-0.0122,-0.0064,0.0024,0.0076,0.003,0.0167,0.0171,0.0143,0.0155,0.0091,0.0184,0.0185,0.0187,0.0188,0,-0.0475,-0.0488,-0.0513,-0.052,-0.052,-0.0521,-0.0506,-0.0487,-0.0423,-0.0392,-0.0331,-0.0267,-0.0184,-0.0143,0.0003,-0.0031,0.0057,0.0129,0.0135,0.0141,0.0165,0.0188,0.0203,0.0202,0.0201,0.02,0.0199,0,-0.0516,-0.0529,-0.0558,-0.0559,-0.0554,-0.0563,-0.0558,-0.0514,-0.0504,-0.0437,-0.0418,-0.0312,-0.0257,-0.0138,0.0007,0.0006,0.0169,0.0188,0.0256,0.0256,0.0272,0.027,0.0298,0.0298,0.0297,0.0297,0.0297,0,-0.0544,-0.0569,-0.0586,-0.0602,-0.0642,-0.0617,-0.064,-0.0614,-0.0575,-0.0561,-0.0464,-0.042,-0.0251,-0.0136,-0.0008,0.0141,0.0159,0.0252,0.028,0.0245,0.0239,0.0278,0.0274,0.0301,0.03,0.0299,0.0299,0,-0.0577,-0.0586,-0.0627,-0.0649,-0.0663,-0.0692,-0.0707,-0.0714,-0.0671,-0.0646,-0.0627,-0.0495,-0.0345,-0.0176,0.0028,0.0115,0.0264,0.0319,0.0258,0.0281,0.0318,0.031,0.039,0.039,0.039,0.039,0.039,0,-0.0591,-0.0617,-0.0674,-0.0713,-0.0729,-0.0768,-0.0793,-0.0768,-0.0764,-0.0687,-0.067,-0.0527,-0.0422,-0.0151,0.0019,0.025,0.029,0.0351,0.0344,0.0309,0.0329,0.0321,0.0314,0.039,0.039,0.039,0.039,0,-0.0621,-0.0648,-0.0684,-0.0767,-0.0815,-0.0858,-0.0883,-0.0887,-0.084,-0.0808,-0.0686,-0.0536,-0.0364,-0.0152,0.003,0.0197,0.0296,0.0353,0.0354,0.0348,0.031,0.0328,0.0321,0.0391,0.0391,0.0391,0.0391,0,-0.0645,-0.0685,-0.0742,-0.0809,-0.0878,-0.0919,-0.093,-0.0902,-0.0882,-0.0781,-0.0742,-0.0543,-0.042,-0.0179,-0.0014,0.0145,0.0185,0.0224,0.0233,0.0235,0.016,0.0088,0.0124,0,0,0,0,0,-0.0661,-0.0708,-0.0779,-0.0849,-0.0918,-0.0949,-0.0973,-0.0965,-0.0923,-0.0841,-0.0784,-0.0613,-0.0349,-0.023,-0.0072,-0.003,0.0191,0.0155,0.0236,0.0392,0.0391,0.0328,0,0,0,0,0,0,-0.0675,-0.0743,-0.0777,-0.0863,-0.0916,-0.0978,-0.0993,-0.0966,-0.0901,-0.0837,-0.0686,-0.0595,-0.0331,-0.0434,-0.0073,-0.0026,0.004,0.0287,0.0289,0.0392,0.0392,0.0391,0.0326,0,0,0,0,0]}]]